Stündliche Wetter Kyyany

Heute, 8 Mai, Samstag

Zeit Temperatur Niederschläge Wind Luftdruck Luftfeuchtigkeit
00:00 +13°C° 0 mm 6 m/S 742 mmHg 56%
01:00 +13°C° 0 mm 6 m/S 742 mmHg 58%
02:00 +13°C° 0 mm 6 m/S 741 mmHg 61%
03:00 +12°C° 0.5 mm 5 m/S 741 mmHg 69%
04:00 +10°C° 0.5 mm 5 m/S 740 mmHg 78%
05:00 +10°C° 0.5 mm 5 m/S 740 mmHg 86%
06:00 +10°C° 0.2 mm 6 m/S 740 mmHg 84%
07:00 +10°C° 0.2 mm 7 m/S 739 mmHg 81%
08:00 +11°C° 0 mm 8 m/S 739 mmHg 80%
09:00 +11°C° 1 mm 8 m/S 739 mmHg 84%
10:00 +10°C° 1 mm 8 m/S 739 mmHg 89%
11:00 +10°C° 1 mm 7 m/S 738 mmHg 93%
12:00 +10°C° 2 mm 7 m/S 738 mmHg 93%
13:00 +11°C° 2 mm 7 m/S 738 mmHg 93%
14:00 +11°C° 2 mm 6 m/S 738 mmHg 92%
15:00 +10°C° 0.1 mm 7 m/S 739 mmHg 91%
16:00 +9°C° 0.1 mm 7 m/S 739 mmHg 90%
17:00 +9°C° 0.1 mm 8 m/S 740 mmHg 89%
18:00 +6°C° 0 mm 8 m/S 740 mmHg 87%
19:00 +5°C° 0 mm 8 m/S 741 mmHg 86%
20:00 +4°C° 0 mm 8 m/S 742 mmHg 84%
21:00 +4°C° 0 mm 8 m/S 742 mmHg 84%
22:00 +3°C° 0 mm 7 m/S 743 mmHg 85%
23:00 +3°C° 0 mm 7 m/S 743 mmHg 85%

Morgen, 9 Mai, Sonntag

Zeit Temperatur Niederschläge Wind Luftdruck Luftfeuchtigkeit
00:00 +3°C° 0 mm 6 m/S 743 mmHg 83%
01:00 +3°C° 0 mm 6 m/S 744 mmHg 82%
02:00 +3°C° 0 mm 6 m/S 744 mmHg 80%
03:00 +3°C° 0 mm 6 m/S 744 mmHg 82%
04:00 +2°C° 0 mm 5 m/S 745 mmHg 83%
05:00 +2°C° 0 mm 5 m/S 745 mmHg 85%
06:00 +3°C° 0 mm 6 m/S 746 mmHg 78%
07:00 +4°C° 0 mm 6 m/S 746 mmHg 71%
08:00 +5°C° 0 mm 7 m/S 747 mmHg 64%
09:00 +6°C° 0 mm 7 m/S 747 mmHg 58%
10:00 +8°C° 0 mm 7 m/S 747 mmHg 53%
11:00 +10°C° 0 mm 8 m/S 748 mmHg 48%
12:00 +10°C° 0 mm 8 m/S 748 mmHg 46%
13:00 +10°C° 0 mm 8 m/S 748 mmHg 45%
14:00 +11°C° 0 mm 8 m/S 749 mmHg 44%
15:00 +10°C° 0 mm 7 m/S 749 mmHg 48%
16:00 +10°C° 0 mm 6 m/S 749 mmHg 52%
17:00 +9°C° 0 mm 6 m/S 750 mmHg 56%
18:00 +8°C° 0 mm 5 m/S 750 mmHg 61%
19:00 +6°C° 0 mm 4 m/S 751 mmHg 67%
20:00 +5°C° 0 mm 3 m/S 752 mmHg 73%
21:00 +4°C° 0 mm 3 m/S 752 mmHg 74%
22:00 +4°C° 0 mm 3 m/S 752 mmHg 76%
23:00 +4°C° 0 mm 3 m/S 752 mmHg 77%

übermorgen, 10 Mai, Montag

Zeit Temperatur Niederschläge Wind Luftdruck Luftfeuchtigkeit
00:00 +3°C° 0 mm 3 m/S 752 mmHg 78%
01:00 +3°C° 0 mm 3 m/S 753 mmHg 79%
02:00 +3°C° 0 mm 3 m/S 753 mmHg 80%
03:00 +3°C° 0 mm 3 m/S 753 mmHg 79%
04:00 +3°C° 0 mm 3 m/S 753 mmHg 78%
05:00 +3°C° 0 mm 3 m/S 754 mmHg 78%
06:00 +5°C° 0 mm 4 m/S 754 mmHg 71%
07:00 +7°C° 0 mm 4 m/S 754 mmHg 64%
08:00 +9°C° 0 mm 5 m/S 754 mmHg 58%
09:00 +10°C° 0 mm 5 m/S 753 mmHg 53%
10:00 +11°C° 0 mm 6 m/S 753 mmHg 48%
11:00 +13°C° 0 mm 6 m/S 753 mmHg 44%
12:00 +12°C° 0 mm 7 m/S 753 mmHg 43%
13:00 +12°C° 0 mm 7 m/S 753 mmHg 43%
14:00 +14°C° 0 mm 7 m/S 752 mmHg 43%
15:00 +12°C° 0 mm 7 m/S 752 mmHg 47%
16:00 +12°C° 0 mm 7 m/S 752 mmHg 52%
17:00 +13°C° 0 mm 6 m/S 751 mmHg 56%
18:00 +11°C° 0 mm 6 m/S 751 mmHg 58%
19:00 +9°C° 0 mm 6 m/S 751 mmHg 61%
20:00 +8°C° 0 mm 6 m/S 751 mmHg 63%
21:00 +8°C° 0 mm 6 m/S 751 mmHg 63%
22:00 +8°C° 0 mm 7 m/S 750 mmHg 63%
23:00 +8°C° 0 mm 7 m/S 750 mmHg 62%

11 Mai, Dienstag

Zeit Temperatur Niederschläge Wind Luftdruck Luftfeuchtigkeit
00:00 +8°C° 0 mm 7 m/S 749 mmHg 63%
01:00 +8°C° 0 mm 7 m/S 749 mmHg 64%
02:00 +8°C° 0 mm 7 m/S 749 mmHg 65%
03:00 +8°C° 0 mm 7 m/S 749 mmHg 66%
04:00 +8°C° 0 mm 7 m/S 748 mmHg 68%
05:00 +8°C° 0 mm 7 m/S 748 mmHg 69%
06:00 +8°C° 0 mm 7 m/S 748 mmHg 72%
07:00 +9°C° 0 mm 7 m/S 748 mmHg 75%
08:00 +9°C° 0 mm 7 m/S 748 mmHg 78%
09:00 +10°C° 0 mm 7 m/S 748 mmHg 78%
10:00 +11°C° 0 mm 7 m/S 748 mmHg 79%
11:00 +11°C° 0 mm 8 m/S 748 mmHg 79%
12:00 +11°C° 0.1 mm 8 m/S 748 mmHg 76%
13:00 +11°C° 0.1 mm 8 m/S 748 mmHg 73%
14:00 +11°C° 0.1 mm 8 m/S 748 mmHg 70%
15:00 +11°C° 0 mm 7 m/S 749 mmHg 68%
16:00 +11°C° 0 mm 7 m/S 749 mmHg 67%
17:00 +11°C° 0 mm 6 m/S 749 mmHg 65%
18:00 +10°C° 0 mm 6 m/S 749 mmHg 68%
19:00 +9°C° 0 mm 6 m/S 749 mmHg 71%
20:00 +8°C° 0 mm 6 m/S 748 mmHg 73%
21:00 +8°C° 0 mm 6 m/S 748 mmHg 74%
22:00 +8°C° 0 mm 7 m/S 748 mmHg 74%
23:00 +6°C° 0 mm 7 m/S 747 mmHg 74%

12 Mai, Mittwoch

Zeit Temperatur Niederschläge Wind Luftdruck Luftfeuchtigkeit
00:00 +6°C° 0 mm 7 m/S 747 mmHg 75%
01:00 +8°C° 0 mm 7 m/S 747 mmHg 76%
02:00 +8°C° 0 mm 7 m/S 746 mmHg 78%
03:00 +6°C° 0 mm 7 m/S 746 mmHg 79%
04:00 +6°C° 0 mm 7 m/S 746 mmHg 80%
05:00 +7°C° 0 mm 6 m/S 746 mmHg 82%
06:00 +6°C° 0.1 mm 7 m/S 746 mmHg 83%
07:00 +8°C° 0.1 mm 7 m/S 746 mmHg 84%
08:00 +8°C° 0.1 mm 7 m/S 746 mmHg 85%
09:00 +8°C° 0.2 mm 7 m/S 746 mmHg 84%
10:00 +8°C° 0.2 mm 7 m/S 746 mmHg 84%
11:00 +7°C° 0.2 mm 8 m/S 747 mmHg 84%
12:00 +9°C° 0.1 mm 7 m/S 747 mmHg 84%
13:00 +9°C° 0.1 mm 7 m/S 747 mmHg 84%
14:00 +9°C° 0.1 mm 7 m/S 747 mmHg 84%
15:00 +9°C° 0.1 mm 6 m/S 747 mmHg 86%
16:00 +9°C° 0.1 mm 5 m/S 746 mmHg 88%
17:00 +10°C° 0.1 mm 4 m/S 746 mmHg 90%
18:00 +10°C° 0.2 mm 4 m/S 746 mmHg 91%
19:00 +8°C° 0.2 mm 4 m/S 746 mmHg 93%
20:00 +8°C° 0.2 mm 4 m/S 745 mmHg 95%
21:00 +8°C° 0.2 mm 4 m/S 745 mmHg 96%
22:00 +9°C° 0.2 mm 3 m/S 745 mmHg 96%
23:00 +9°C° 0.2 mm 3 m/S 745 mmHg 97%

13 Mai, Donnerstag

Zeit Temperatur Niederschläge Wind Luftdruck Luftfeuchtigkeit
00:00 +9°C° 0 mm 3 m/S 745 mmHg 97%
01:00 +9°C° 0 mm 3 m/S 745 mmHg 97%
02:00 +9°C° 0 mm 3 m/S 744 mmHg 96%
03:00 +8°C° 0 mm 3 m/S 745 mmHg 96%
04:00 +8°C° 0 mm 3 m/S 745 mmHg 95%
05:00 +8°C° 0 mm 3 m/S 745 mmHg 94%
06:00 +10°C° 0 mm 3 m/S 745 mmHg 88%
07:00 +12°C° 0 mm 4 m/S 745 mmHg 81%
08:00 +13°C° 0 mm 4 m/S 745 mmHg 75%
09:00 +15°C° 0 mm 5 m/S 745 mmHg 70%
10:00 +17°C° 0 mm 5 m/S 745 mmHg 66%
11:00 +19°C° 0 mm 6 m/S 744 mmHg 62%
12:00 +20°C° 0 mm 6 m/S 744 mmHg 61%
13:00 +20°C° 0 mm 5 m/S 744 mmHg 61%
14:00 +21°C° 0 mm 5 m/S 744 mmHg 61%
15:00 +20°C° 0 mm 5 m/S 744 mmHg 63%
16:00 +20°C° 0 mm 5 m/S 744 mmHg 64%
17:00 +20°C° 0 mm 4 m/S 743 mmHg 66%
18:00 +19°C° 0 mm 5 m/S 743 mmHg 69%
19:00 +17°C° 0 mm 5 m/S 743 mmHg 71%
20:00 +16°C° 0 mm 5 m/S 743 mmHg 74%
21:00 +16°C° 0 mm 5 m/S 743 mmHg 77%
22:00 +15°C° 0 mm 5 m/S 743 mmHg 80%
23:00 +14°C° 0 mm 5 m/S 743 mmHg 83%
Mehr zeigen

Wir brauchen deine Erlaubnis

Meteoprog und unser Service Anbieter werden persönliche Daten aufbewahren, so wie Cookies, Geräte Bezeichnung oder ähnliche Technologien von deinem Gerät und Prozess, so wie Persönliche Daten Inhalte und Werbungen, genauso wie social Media und den Verkehr zu analysieren.

  • Aufbewahrung und/oder Zugang zu deiner Geräte Informationen.

    Cookies, Geräte Bezeichnung oder andere Informationen, können aufbewahrt oder Zugang zu deinem Gerät erhalten, für den Grund, der oben angegeben wird.

  • Personalisierte Werbung und Inhalte, Messungen, Einblick in das Publikum und Produkt Entwicklung.

    Werbungen und Inhalte können personalisiert werden, basierend auf ein Profil. Mehr Daten können besser personalisierte Werbungen und Inhalte hinzufügen. Werbung und Inhalte können gezeigt und gemessen werden. Einblicke über das Publikum, welche die Werbung gesehen haben und den Inhalt, können abgeleitet werden. So wie Daten können genutzt werden, um es zu verbessern oder die Benutzer Erfahrung zu verbessern das System und die Software.

Wenn du “Ich stimme zu” klickst, erlaubst du uns, die Cookies zu benutzen die Geräte Bezeichnung, den Web oder ähnliche Technologien zu benutzen. Deine Settings, können in deinem Gerät bei deinem Browser geändert werden.

Für den bestimmten Zweck, berechtigten Interessen beruhen darauf, mehr als auf den Inhalt. Du kannst mehr darüber in unseren Privaten und Cookie Politik lesen.